sat.trackr.live / text

‹ back to catalog

STARLINK-5940

NORAD 56012 · 2023-042AC

PAYLOAD ACTIVE UNKNOWN

§ Identity

Operator
Country
US
Launch date
2023-03-24
Launch site
AFETR
Launch vehicle
Mass (kg)
RCS (m²)

Purposes: comms

External: N2YO · Heavens-Above · Gunter

§ Orbital elements

Epoch: 2026-05-24T21:22:30.476064Z

Period
94.27 min
Inclination
43.0028°
Eccentricity
0.0000992
Mean motion
15.27577061 rev/d
Perigee alt
482.4 km
Apogee alt
483.7 km
Semi-major
6,861.2 km
B*
3.9150e-6
RAAN
334.5330°
Arg perigee
246.1107°
Mean anomaly
113.9640°
Rev number
17,469

§ Raw data

STARLINK-59401 56012U 23042AC  26144.89063051 -.00000154  00000+0  39150-5 0  99972 56012  43.0028 334.5330 0000992 246.1107 113.9640 15.27577061174697

JSON: /api/v1/satellites/56012 · /tle

For live sub-satellite position, see the globe view (requires WebGL).

§ Visibility from observer

Set your observer location to see the next 7 days of passes ≥ 10°. The values pass through the URL so the page stays shareable.

No JS? Fill the form by hand. The geolocation button needs JavaScript.